Location: Crescent
(42.8242°N, 73.7329°W)
Time: 23:39:56
(UTC+00:00)

Vanguard 2 Rocket - Pass Details

Date: 22 February 2026
Orbit: 553 x 3286 km, 32.9° (Epoch: 9 March)

Event Time Altitude Azimuth Distance (km) Brightness Sun altitude
Rises 19:58:25 0° 271° (W) 7,136 12.1 24.5°
Reaches altitude 10° 20:03:46 10° 267° (W) 5,906 12.0 23.8°
Maximum altitude 20:19:44 48° 201° (SSW) 2,724 10.4 21.5°
Drops below altitude 10° 20:29:33 10° 130° (SE) 3,734 10.0 20.1°
Sets 20:32:09 0° 124° (SE) 4,412 10.2 19.7°
